| time (UTC) | temp F | wind direction | speed MPH | gust MPH | rain 1hr in | rain 24hr in | rain mn in | humidity % | barometer mb |
| 20260903163829 | 55 | 180 | 0.0 | 0.0 | 0.00 | 0.01 | 0.00 | 92 | 1022.3 |
| 20260903162830 | 55 | 180 | 0.0 | 0.0 | 0.00 | 0.01 | 0.00 | 92 | 1022.3 |
| 20260903162728 | 55 | 180 | 0.0 | 0.0 | 0.00 | 0.01 | 0.00 | 93 | 1022.4 |
| 20260903161730 | 55 | 180 | 0.0 | 0.0 | 0.00 | 0.01 | 0.00 | 92 | 1022.4 |
| 20260903160728 | 55 | 180 | 1.0 | 5.0 | 0.00 | 0.01 | 0.00 | 93 | 1022.4 |
| 20260903155730 | 55 | 90 | 0.0 | 2.0 | 0.00 | 0.01 | 0.00 | 94 | 1022.1 |
| 20260903154829 | 55 | 45 | 2.0 | 3.0 | 0.00 | 0.01 | 0.00 | 93 | 1022.0 |
| 20260903153829 | 55 | 90 | 0.0 | 0.0 | 0.00 | 0.01 | 0.00 | 93 | 1021.9 |
| 20260903152830 | 55 | 90 | 3.0 | 6.0 | 0.00 | 0.01 | 0.00 | 94 | 1021.9 |
| 20260903151829 | 55 | 46 | 1.0 | 3.0 | 0.00 | 0.01 | 0.00 | 94 | 1021.8 |
| 20260903150829 | 55 | 35 | 4.0 | 7.0 | 0.00 | 0.01 | 0.00 | 95 | 1021.9 |
| 20260903145829 | 55 | 270 | 0.0 | 1.0 | 0.00 | 0.01 | 0.00 | 95 | 1021.9 |
| 20260903144828 | 54 | 63 | 0.0 | 0.0 | 0.00 | 0.01 | 0.00 | 96 | 1021.7 |
| 20260903143828 | 54 | 47 | 2.0 | 4.0 | 0.00 | 0.01 | 0.00 | 96 | 1021.7 |
| 20260903142830 | 54 | 22 | 0.0 | 0.0 | 0.00 | 0.01 | 0.00 | 95 | 1021.6 |
| 20260903141828 | 54 | 22 | 0.0 | 1.0 | 0.00 | 0.01 | 0.00 | 96 | 1021.5 |
| 20260903140832 | 55 | 22 | 0.0 | 1.0 | 0.00 | 0.01 | 0.00 | 95 | 1021.4 |
| 20260903135831 | 54 | 45 | 0.0 | 0.0 | 0.00 | 0.01 | 0.00 | 96 | 1021.4 |
| 20260903134928 | 54 | 90 | 0.0 | 0.0 | 0.00 | 0.01 | 0.00 | 96 | 1021.5 |
| 20260903134829 | 54 | 90 | 0.0 | 0.0 | 0.00 | 0.01 | 0.00 | 95 | 1021.4 |
| 20260903133829 | 54 | 112 | 1.0 | 4.0 | 0.00 | 0.01 | 0.00 | 96 | 1021.4 |
| 20260903132828 | 54 | 112 | 3.0 | 3.0 | 0.00 | 0.01 | 0.00 | 95 | 1021.3 |
| 20260903131829 | 54 | 112 | 0.0 | 0.0 | 0.00 | 0.01 | 0.00 | 95 | 1021.3 |
| 20260903125828 | 54 | 112 | 0.0 | 0.0 | 0.00 | 0.01 | 0.00 | 95 | 1021.2 |
| 20260903123829 | 54 | 112 | 0.0 | 1.0 | 0.00 | 0.01 | 0.00 | 95 | 1021.1 |
| 20260903122829 | 54 | 112 | 1.0 | 2.0 | 0.00 | 0.01 | 0.00 | 96 | 1021.3 |
| 20260903121830 | 54 | 112 | 1.0 | 2.0 | 0.00 | 0.01 | 0.00 | 95 | 1021.2 |
| 20260903120828 | 54 | 112 | 1.0 | 1.0 | 0.00 | 0.01 | 0.00 | 95 | 1021.2 |
| 20260903115828 | 54 | 112 | 0.0 | 0.0 | 0.00 | 0.01 | 0.00 | 95 | 1021.2 |
| 20260903114829 | 54 | 112 | 1.0 | 2.0 | 0.00 | 0.01 | 0.00 | 95 | 1021.3 |
| 20260903113829 | 54 | 112 | 2.0 | 2.0 | 0.00 | 0.01 | 0.00 | 95 | 1021.2 |
| 20260903110830 | 54 | 112 | 0.0 | 0.0 | 0.00 | 0.01 | 0.00 | 94 | 1021.3 |
| 20260903110729 | 54 | 112 | 0.0 | 0.0 | 0.00 | 0.01 | 0.00 | 95 | 1021.3 |
| 20260903105731 | 54 | 135 | 0.0 | 0.0 | 0.00 | 0.01 | 0.00 | 94 | 1021.1 |
| 20260903104828 | 54 | 135 | 0.0 | 0.0 | 0.00 | 0.01 | 0.00 | 94 | 1021.1 |
| 20260903103829 | 54 | 135 | 0.0 | 0.0 | 0.00 | 0.01 | 0.00 | 94 | 1021.2 |
| 20260903102830 | 54 | 135 | 4.0 | 5.0 | 0.00 | 0.01 | 0.00 | 94 | 1020.9 |
| 20260903095928 | 54 | 135 | 0.0 | 1.0 | 0.00 | 0.01 | 0.00 | 93 | 1020.8 |
| 20260903094930 | 54 | 135 | 2.0 | 3.0 | 0.00 | 0.01 | 0.00 | 94 | 1020.7 |
| 20260903093929 | 55 | 135 | 3.0 | 3.0 | 0.00 | 0.01 | 0.00 | 92 | 1020.8 |
| 20260903093830 | 55 | 135 | 3.0 | 3.0 | 0.00 | 0.01 | 0.00 | 93 | 1020.9 |
| 20260903092929 | 55 | 180 | 0.0 | 0.0 | 0.00 | 0.01 | 0.00 | 92 | 1020.9 |
| 20260903092831 | 55 | 180 | 0.0 | 0.0 | 0.00 | 0.01 | 0.00 | 92 | 1020.8 |
| 20260903085931 | 56 | 180 | 0.0 | 2.0 | 0.00 | 0.01 | 0.00 | 89 | 1020.8 |
| 20260903084928 | 56 | 223 | 2.0 | 4.0 | 0.00 | 0.01 | 0.00 | 89 | 1021.0 |
| 20260903082929 | 56 | 185 | 0.0 | 4.0 | 0.00 | 0.01 | 0.00 | 88 | 1020.6 |
| 20260903081029 | 57 | 225 | 6.0 | 10.0 | 0.00 | 0.01 | 0.00 | 90 | 1020.5 |
| 20260903080029 | 56 | 225 | 8.0 | 14.0 | 0.00 | 0.01 | 0.00 | 92 | 1020.6 |
| 20260903075030 | 56 | 219 | 4.0 | 7.0 | 0.00 | 0.01 | 0.00 | 93 | 1020.6 |
| 20260903074129 | 56 | 226 | 8.0 | 11.0 | 0.00 | 0.01 | 0.00 | 93 | 1020.7 |
| 20260903073129 | 55 | 202 | 3.0 | 4.0 | 0.00 | 0.01 | 0.00 | 94 | 1020.6 |
| 20260903072130 | 55 | 180 | 0.0 | 0.0 | 0.00 | 0.01 | 0.00 | 94 | 1020.3 |
| 20260903071128 | 55 | 202 | 2.0 | 2.0 | 0.00 | 0.01 | 0.00 | 94 | 1020.3 |
| 20260903070129 | 55 | 360 | 0.0 | 0.0 | 0.00 | 0.01 | 0.00 | 94 | 1020.3 |
| 20260903064212 | 55 | 180 | 0.0 | 0.0 | 0.00 | 0.01 | 0.01 | 95 | 1020.4 |
| 20260903063214 | 55 | 180 | 0.0 | 0.0 | 0.00 | 0.01 | 0.01 | 94 | 1020.3 |
| 20260903062211 | 55 | 157 | 0.0 | 1.0 | 0.00 | 0.01 | 0.01 | 93 | 1020.3 |
| 20260903061211 | 55 | 157 | 0.0 | 0.0 | 0.00 | 0.01 | 0.01 | 93 | 1020.3 |
| 20260903060211 | 56 | 157 | 1.0 | 2.0 | 0.00 | 0.01 | 0.01 | 93 | 1020.5 |
| 20260903055213 | 56 | 157 | 3.0 | 4.0 | 0.00 | 0.01 | 0.01 | 92 | 1020.3 |
| 20260903054312 | 57 | 180 | 0.0 | 1.0 | 0.00 | 0.01 | 0.01 | 92 | 1020.3 |
| 20260903052314 | 57 | 246 | 2.0 | 4.0 | 0.00 | 0.01 | 0.01 | 91 | 1020.3 |
| 20260903051411 | 57 | 225 | 3.0 | 4.0 | 0.00 | 0.01 | 0.01 | 91 | 1020.1 |
| 20260903051312 | 57 | 225 | 2.0 | 4.0 | 0.00 | 0.01 | 0.01 | 91 | 1020.1 |
| 20260903050313 | 57 | 224 | 2.0 | 3.0 | 0.00 | 0.01 | 0.01 | 93 | 1020.1 |
| 20260903045412 | 58 | 225 | 2.0 | 3.0 | 0.00 | 0.01 | 0.01 | 92 | 1019.9 |
| 20260903044511 | 58 | 232 | 5.0 | 7.0 | 0.00 | 0.01 | 0.01 | 92 | 1019.9 |
| 20260903043512 | 58 | 225 | 5.0 | 7.0 | 0.00 | 0.01 | 0.01 | 92 | 1019.9 |
| 20260903042511 | 58 | 228 | 8.0 | 10.0 | 0.00 | 0.01 | 0.01 | 93 | 1019.8 |
| 20260903041514 | 58 | 221 | 5.0 | 7.0 | 0.00 | 0.01 | 0.01 | 93 | 1019.5 |
| 20260903040513 | 58 | 225 | 5.0 | 7.0 | 0.00 | 0.01 | 0.01 | 93 | 1019.5 |
| 20260903035512 | 58 | 225 | 6.0 | 7.0 | 0.00 | 0.01 | 0.01 | 93 | 1019.4 |
| 20260903034511 | 58 | 225 | 5.0 | 7.0 | 0.00 | 0.01 | 0.01 | 93 | 1019.2 |
| 20260903032513 | 58 | 223 | 4.0 | 6.0 | 0.00 | 0.01 | 0.01 | 93 | 1019.2 |
| 20260903032411 | 58 | 225 | 4.0 | 6.0 | 0.00 | 0.01 | 0.01 | 93 | 1019.2 |
| 20260903031413 | 58 | 225 | 4.0 | 4.0 | 0.00 | 0.01 | 0.01 | 93 | 1019.3 |
| 20260903030512 | 58 | 225 | 4.0 | 6.0 | 0.00 | 0.01 | 0.01 | 93 | 1019.2 |
| 20260903025513 | 58 | 225 | 6.0 | 7.0 | 0.00 | 0.01 | 0.01 | 94 | 1019.2 |
| 20260903024611 | 58 | 225 | 4.0 | 5.0 | 0.00 | 0.01 | 0.01 | 93 | 1019.1 |
| 20260903023613 | 58 | 207 | 7.0 | 11.0 | 0.00 | 0.01 | 0.01 | 92 | 1019.1 |
| 20260903022614 | 59 | 224 | 7.0 | 10.0 | 0.00 | 0.01 | 0.01 | 93 | 1019.1 |
| 20260903021711 | 59 | 223 | 7.0 | 11.0 | 0.01 | 0.01 | 0.01 | 93 | 1018.9 |
| 20260903021613 | 59 | 225 | 8.0 | 12.0 | 0.01 | 0.01 | 0.01 | 92 | 1018.9 |
| 20260903020614 | 59 | 225 | 4.0 | 7.0 | 0.01 | 0.01 | 0.01 | 93 | 1019.0 |
| 20260903015613 | 59 | 225 | 10.0 | 13.0 | 0.01 | 0.01 | 0.01 | 92 | 1018.8 |
| 20260903014613 | 59 | 228 | 8.0 | 10.0 | 0.01 | 0.01 | 0.01 | 93 | 1018.5 |
| 20260903013612 | 59 | 225 | 7.0 | 10.0 | 0.01 | 0.01 | 0.01 | 94 | 1018.5 |
| 20260903012712 | 59 | 231 | 11.0 | 14.0 | 0.01 | 0.01 | 0.01 | 94 | 1018.5 |
| 20260903011710 | 59 | 226 | 9.0 | 13.0 | 0.00 | 0.00 | 0.00 | 93 | 1018.5 |
| 20260903010712 | 59 | 215 | 4.0 | 6.0 | 0.00 | 0.00 | 0.00 | 93 | 1018.4 |
| 20260903005712 | 59 | 200 | 2.0 | 4.0 | 0.00 | 0.00 | 0.00 | 94 | 1018.1 |
| 20260903004712 | 59 | 180 | 0.0 | 0.0 | 0.00 | 0.00 | 0.00 | 92 | 1018.2 |
| 20260903003711 | 59 | 197 | 0.0 | 0.0 | 0.00 | 0.00 | 0.00 | 93 | 1018.1 |
| 20260903002713 | 60 | 202 | 0.0 | 0.0 | 0.00 | 0.00 | 0.00 | 92 | 1018.3 |
| 20260903001712 | 59 | 202 | 0.0 | 0.0 | 0.00 | 0.00 | 0.00 | 92 | 1018.2 |
| 20260903000713 | 59 | 202 | 0.0 | 0.0 | 0.00 | 0.00 | 0.00 | 93 | 1018.1 |
| 20260902235713 | 59 | 202 | 0.0 | 0.0 | 0.00 | 0.00 | 0.00 | 92 | 1018.2 |
| 20260902234712 | 59 | 180 | 0.0 | 0.0 | 0.00 | 0.00 | 0.00 | 91 | 1018.0 |
| 20260902233712 | 59 | 180 | 0.0 | 0.0 | 0.00 | 0.00 | 0.00 | 92 | 1018.3 |
| 20260902230714 | 60 | 180 | 0.0 | 0.0 | 0.00 | 0.00 | 0.00 | 92 | 1018.0 |
| 20260902224713 | 60 | 202 | 0.0 | 0.0 | 0.00 | 0.00 | 0.00 | 91 | 1018.3 |
| 20260902223811 | 60 | 202 | 0.0 | 0.0 | 0.00 | 0.00 | 0.00 | 90 | 1018.0 |
| 20260902221813 | 60 | 202 | 0.0 | 0.0 | 0.00 | 0.00 | 0.00 | 92 | 1018.2 |
| 20260902215914 | 60 | 204 | 0.0 | 3.0 | 0.00 | 0.00 | 0.00 | 91 | 1018.4 |
| 20260902213911 | 60 | 45 | 1.0 | 2.0 | 0.00 | 0.00 | 0.00 | 90 | 1018.2 |
| 20260902212913 | 60 | 45 | 0.0 | 0.0 | 0.00 | 0.00 | 0.00 | 89 | 1018.0 |
| 20260902211011 | 60 | 45 | 0.0 | 0.0 | 0.00 | 0.00 | 0.00 | 89 | 1017.8 |
| 20260902210913 | 60 | 45 | 0.0 | 0.0 | 0.00 | 0.00 | 0.00 | 89 | 1017.8 |
| 20260902210012 | 60 | 45 | 0.0 | 0.0 | 0.00 | 0.00 | 0.00 | 90 | 1017.8 |
| 20260902204013 | 60 | 45 | 3.0 | 3.0 | 0.00 | 0.00 | 0.00 | 89 | 1017.7 |
| 20260902203014 | 60 | 49 | 4.0 | 4.0 | 0.00 | 0.00 | 0.00 | 89 | 1017.7 |
| 20260902202112 | 60 | 135 | 0.0 | 0.0 | 0.00 | 0.00 | 0.00 | 88 | 1017.9 |
| 20260902201112 | 60 | 135 | 0.0 | 0.0 | 0.00 | 0.00 | 0.00 | 88 | 1018.0 |
| 20260902200112 | 60 | 135 | 1.0 | 3.0 | 0.00 | 0.00 | 0.00 | 87 | 1018.1 |
| 20260902195112 | 61 | 184 | 0.0 | 4.0 | 0.00 | 0.00 | 0.00 | 86 | 1018.4 |
| 20260902194113 | 61 | 207 | 2.0 | 5.0 | 0.00 | 0.00 | 0.00 | 85 | 1018.5 |
| 20260902193112 | 61 | 225 | 6.0 | 8.0 | 0.00 | 0.00 | 0.00 | 83 | 1018.5 |
| 20260902192211 | 62 | 220 | 6.0 | 9.0 | 0.00 | 0.00 | 0.00 | 82 | 1018.4 |
| 20260902191213 | 62 | 225 | 7.0 | 8.0 | 0.00 | 0.00 | 0.00 | 80 | 1018.4 |
| 20260902190214 | 63 | 231 | 4.0 | 6.0 | 0.00 | 0.00 | 0.00 | 78 | 1018.2 |
| 20260902185212 | 63 | 225 | 4.0 | 6.0 | 0.00 | 0.00 | 0.00 | 76 | 1018.2 |
| 20260902184214 | 63 | 270 | 6.0 | 7.0 | 0.00 | 0.00 | 0.00 | 73 | 1017.9 |
| 20260902183210 | 64 | 247 | 5.0 | 7.0 | 0.00 | 0.00 | 0.00 | 71 | 1018.0 |
| 20260902182212 | 65 | 270 | 4.0 | 5.0 | 0.00 | 0.00 | 0.00 | 66 | 1018.0 |
| 20260902175311 | 64 | 247 | 1.0 | 2.0 | 0.00 | 0.00 | 0.00 | 66 | 1018.0 |
| 20260902175211 | 64 | 247 | 1.0 | 2.0 | 0.00 | 0.00 | 0.00 | 66 | 1018.0 |
| 20260902174213 | 65 | 292 | 3.0 | 3.0 | 0.00 | 0.00 | 0.00 | 66 | 1017.9 |
| 20260902172213 | 64 | 22 | 2.0 | 3.0 | 0.00 | 0.00 | 0.00 | 67 | 1017.9 |
| 20260902171212 | 64 | 22 | 3.0 | 4.0 | 0.00 | 0.00 | 0.00 | 68 | 1017.9 |
| 20260902171110 | 64 | 22 | 2.0 | 3.0 | 0.00 | 0.00 | 0.00 | 68 | 1017.9 |
| 20260902170112 | 64 | 22 | 4.0 | 5.0 | 0.00 | 0.00 | 0.00 | 68 | 1018.0 |
| 20260902164211 | 64 | 22 | 4.0 | 5.0 | 0.00 | 0.00 | 0.00 | 70 | 1018.1 |